DW6417 Weather Reports


Display with metric or nautical units.
time (UTC)temp
F
wind
direction
speed
MPH
gust
MPH
rain 1hr
in
rain 24hr
in
rain mn
in
humidity
%
barometer
mb
20260507225419 53 81 2.0 4.0 0.00 0.01 0.00 72 1015.6
20260507224920 53 82 3.0 6.0 0.00 0.01 0.00 72 1015.6
20260507224625 53 80 3.0 6.0 0.00 0.01 0.00 71 1015.7
20260507224420 53 84 3.0 6.0 0.00 0.01 0.00 71 1015.7
20260507223920 54 84 3.0 6.0 0.00 0.01 0.00 71 1015.6
20260507223625 54 84 3.0 5.0 0.00 0.01 0.00 70 1015.6
20260507223420 54 85 3.0 6.0 0.00 0.01 0.00 70 1015.6
20260507222919 54 84 3.0 8.0 0.00 0.01 0.00 70 1015.6
20260507222625 54 84 3.0 8.0 0.00 0.01 0.00 70 1015.5
20260507222419 54 84 3.0 8.0 0.00 0.01 0.00 70 1015.5
20260507221920 54 92 3.0 8.0 0.00 0.01 0.00 69 1015.6
20260507221625 54 143 2.0 4.0 0.00 0.01 0.00 69 1015.5
20260507221420 54 120 3.0 7.0 0.00 0.01 0.00 69 1015.5
20260507220625 54 143 3.0 5.0 0.00 0.01 0.00 69 1015.5
20260507220419 54 146 3.0 7.0 0.00 0.01 0.00 69 1015.5
20260507215925 54 148 3.0 7.0 0.00 0.01 0.00 69 1015.5
20260507215420 54 149 1.0 4.0 0.00 0.01 0.01 70 1015.4
20260507214420 54 150 2.0 4.0 0.00 0.01 0.01 69 1015.4
20260507213920 54 150 2.0 4.0 0.00 0.01 0.01 70 1015.4
20260507213625 54 150 1.0 3.0 0.00 0.01 0.01 69 1015.3
20260507212919 54 162 1.0 4.0 0.00 0.01 0.01 69 1015.3
20260507212625 54 150 1.0 4.0 0.00 0.01 0.01 69 1015.2
20260507212420 54 235 1.0 4.0 0.00 0.01 0.01 69 1015.2
20260507211920 54 264 1.0 4.0 0.00 0.01 0.01 69 1015.3
20260507211625 54 267 1.0 4.0 0.00 0.01 0.01 70 1015.2
20260507211419 54 0 0.0 4.0 0.00 0.01 0.01 70 1015.2
20260507210920 54 0 0.0 0.0 0.00 0.01 0.01 73 1015.2
20260507210625 53 271 0.0 0.0 0.00 0.01 0.01 74 1015.2
20260507210421 53 0 0.0 0.0 0.00 0.01 0.01 74 1015.2
20260507205919 53 0 0.0 0.0 0.00 0.01 0.01 79 1015.2
20260507205625 54 271 0.0 0.0 0.00 0.01 0.01 79 1015.2
20260507205419 54 0 0.0 0.0 0.00 0.01 0.01 79 1015.2
20260507204919 53 0 0.0 0.0 0.00 0.01 0.01 78 1015.0
20260507204625 54 271 0.0 0.0 0.00 0.01 0.01 78 1015.0
20260507204420 54 0 0.0 0.0 0.00 0.01 0.01 78 1015.0
20260507203920 54 0 0.0 0.0 0.00 0.01 0.01 77 1015.0
20260507203625 54 271 0.0 0.0 0.00 0.01 0.01 78 1014.9
20260507202920 54 0 0.0 0.0 0.00 0.01 0.01 77 1014.9
20260507202625 54 271 0.0 0.0 0.00 0.01 0.01 78 1014.9
20260507202419 54 0 0.0 0.0 0.00 0.01 0.01 78 1014.9
20260507201920 54 0 0.0 0.0 0.00 0.01 0.01 78 1014.8
20260507201625 54 271 0.0 0.0 0.00 0.01 0.01 77 1014.8
20260507201419 54 0 0.0 0.0 0.00 0.01 0.01 77 1014.9
20260507200625 54 271 0.0 0.0 0.00 0.01 0.01 77 1014.8
20260507195919 54 0 0.0 1.0 0.00 0.01 0.01 76 1014.8
20260507195419 55 0 0.0 1.0 0.00 0.01 0.01 75 1014.7
20260507194920 55 0 0.0 0.0 0.00 0.01 0.01 76 1014.6
20260507194626 55 271 0.0 0.0 0.00 0.01 0.01 75 1014.6
20260507194419 55 0 0.0 0.0 0.00 0.01 0.01 75 1014.6
20260507193920 55 0 0.0 0.0 0.00 0.01 0.01 75 1014.5
20260507193420 55 0 0.0 0.0 0.00 0.01 0.01 74 1014.5
20260507192919 56 0 0.0 0.0 0.00 0.01 0.01 73 1014.5
20260507192626 56 271 0.0 0.0 0.00 0.01 0.01 73 1014.4
20260507192419 56 0 0.0 0.0 0.00 0.01 0.01 73 1014.4
20260507191919 56 0 0.0 1.0 0.00 0.01 0.01 73 1014.3
20260507191419 57 270 1.0 1.0 0.00 0.01 0.01 72 1014.3
20260507190919 57 270 1.0 1.0 0.00 0.01 0.01 72 1014.3
20260507190625 57 271 0.0 1.0 0.00 0.01 0.01 71 1014.4
20260507190420 57 0 0.0 1.0 0.00 0.01 0.01 71 1014.4
20260507185919 58 0 0.0 1.0 0.00 0.01 0.01 71 1014.3
20260507185626 58 271 0.0 0.0 0.00 0.01 0.01 71 1014.4
20260507185419 58 0 0.0 0.0 0.00 0.01 0.01 71 1014.4
20260507184920 58 0 0.0 0.0 0.00 0.01 0.01 71 1014.4
20260507184625 58 271 0.0 0.0 0.00 0.01 0.01 69 1014.3
20260507184419 58 0 0.0 0.0 0.00 0.01 0.01 69 1014.3
20260507183919 58 0 0.0 2.0 0.00 0.01 0.01 69 1014.3
20260507183625 59 271 0.0 2.0 0.00 0.01 0.01 69 1014.3
20260507182919 59 284 1.0 2.0 0.00 0.01 0.01 67 1014.2
20260507182626 59 271 1.0 2.0 0.00 0.01 0.01 67 1014.2
20260507182419 59 300 1.0 2.0 0.00 0.01 0.01 67 1014.2
20260507181625 59 305 0.0 1.0 0.00 0.01 0.01 65 1014.2
20260507181419 59 0 0.0 2.0 0.00 0.01 0.01 64 1014.2
20260507180625 60 305 1.0 2.0 0.00 0.01 0.01 63 1014.2
20260507180420 60 305 1.0 3.0 0.00 0.01 0.01 63 1014.2
20260507175919 60 305 1.0 3.0 0.00 0.01 0.01 61 1014.2
20260507175626 60 305 0.0 2.0 0.00 0.01 0.01 61 1014.2
20260507174920 60 0 0.0 0.0 0.00 0.01 0.01 62 1014.2
20260507174627 60 305 0.0 0.0 0.00 0.01 0.01 63 1014.1
20260507174420 60 0 0.0 2.0 0.00 0.01 0.01 63 1014.1
20260507173919 60 305 2.0 4.0 0.00 0.01 0.01 61 1014.1
20260507173626 60 305 2.0 4.0 0.00 0.01 0.01 61 1014.1
20260507173419 60 304 2.0 4.0 0.00 0.01 0.01 61 1014.1
20260507172625 60 305 1.0 5.0 0.00 0.01 0.01 59 1014.1
20260507171920 60 303 2.0 4.0 0.00 0.01 0.01 61 1014.0
20260507171626 61 303 1.0 3.0 0.00 0.01 0.01 61 1014.0
20260507171419 61 303 1.0 3.0 0.00 0.01 0.01 61 1014.0
20260507170920 61 303 1.0 3.0 0.00 0.01 0.01 61 1013.9
20260507170625 61 303 1.0 3.0 0.00 0.01 0.01 62 1014.0
20260507170419 61 303 2.0 6.0 0.00 0.01 0.01 62 1013.9
20260507165920 61 301 2.0 7.0 0.00 0.01 0.01 60 1013.9
20260507165626 61 303 2.0 7.0 0.00 0.01 0.01 60 1014.0
20260507164919 61 299 2.0 4.0 0.00 0.01 0.01 62 1013.9
20260507164625 61 300 2.0 3.0 0.00 0.01 0.01 61 1013.9
20260507164420 61 299 2.0 4.0 0.00 0.01 0.01 61 1013.9
20260507163922 61 299 3.0 6.0 0.00 0.01 0.01 60 1013.9
20260507163625 61 300 3.0 6.0 0.00 0.01 0.01 60 1013.9
20260507163419 61 299 3.0 6.0 0.00 0.01 0.01 60 1013.9
20260507162920 61 299 2.0 6.0 0.00 0.01 0.01 61 1013.9
20260507162625 61 299 3.0 6.0 0.00 0.01 0.01 61 1014.0
20260507162419 61 302 3.0 7.0 0.00 0.01 0.01 61 1013.9
20260507161920 61 328 3.0 7.0 0.00 0.01 0.01 62 1013.9
20260507161625 61 30 2.0 3.0 0.00 0.01 0.01 61 1014.0
20260507160920 61 282 3.0 7.0 0.00 0.01 0.01 60 1014.0
20260507160625 61 288 4.0 7.0 0.00 0.01 0.01 60 1013.9
20260507160419 61 268 3.0 7.0 0.00 0.01 0.01 60 1013.9
20260507155920 61 263 2.0 5.0 0.00 0.01 0.01 61 1013.9
20260507155626 61 262 2.0 5.0 0.00 0.01 0.01 60 1013.9
20260507155420 61 238 2.0 5.0 0.00 0.01 0.01 60 1013.9
20260507154920 61 217 2.0 4.0 0.00 0.01 0.01 60 1013.8
20260507154419 61 217 2.0 4.0 0.00 0.01 0.01 57 1013.7
20260507153627 61 217 0.0 3.0 0.00 0.01 0.01 58 1013.8
20260507153420 61 217 1.0 3.0 0.00 0.01 0.01 58 1013.8
20260507152625 61 217 2.0 3.0 0.00 0.01 0.01 56 1013.8
20260507151920 61 217 1.0 3.0 0.00 0.01 0.01 58 1013.7
20260507151626 61 217 1.0 3.0 0.00 0.01 0.01 56 1013.7
20260507150919 61 217 2.0 5.0 0.00 0.01 0.01 58 1013.7
20260507150625 61 217 1.0 3.0 0.00 0.01 0.01 57 1013.7
20260507145920 61 217 1.0 2.0 0.00 0.01 0.01 58 1013.8
20260507145626 61 217 1.0 2.0 0.00 0.01 0.01 56 1013.8
20260507145421 61 228 1.0 4.0 0.00 0.01 0.01 56 1013.8
20260507144920 61 33 1.0 4.0 0.00 0.01 0.01 55 1013.7
20260507143626 61 36 2.0 3.0 0.00 0.01 0.01 56 1013.8
20260507143420 61 36 1.0 3.0 0.00 0.01 0.01 56 1013.8
20260507142920 61 36 1.0 4.0 0.00 0.01 0.01 56 1013.8
20260507142625 61 36 2.0 4.0 0.00 0.01 0.01 56 1013.8
20260507141920 62 36 1.0 4.0 0.00 0.01 0.01 55 1013.8
20260507141626 62 36 1.0 3.0 0.00 0.01 0.01 55 1013.8
20260507141420 62 36 1.0 3.0 0.00 0.01 0.01 57 1013.9
20260507140920 62 36 2.0 4.0 0.00 0.01 0.01 55 1013.8
20260507140626 62 36 1.0 4.0 0.00 0.01 0.01 56 1013.9
20260507140420 62 37 2.0 7.0 0.00 0.01 0.01 56 1013.9
20260507135920 62 39 2.0 7.0 0.00 0.01 0.01 54 1013.9
20260507135626 63 39 2.0 6.0 0.00 0.01 0.01 55 1013.9
20260507135420 63 63 2.0 6.0 0.00 0.01 0.01 53 1013.9
20260507134626 63 84 2.0 4.0 0.00 0.01 0.01 51 1013.9
20260507134420 63 84 2.0 5.0 0.00 0.01 0.01 51 1013.9
20260507133920 63 73 3.0 7.0 0.00 0.01 0.01 51 1013.9
20260507133626 63 85 3.0 7.0 0.00 0.01 0.01 53 1013.9
20260507133420 63 44 2.0 7.0 0.00 0.01 0.01 53 1013.9
20260507132920 62 358 1.0 5.0 0.00 0.01 0.01 57 1013.9
20260507132626 62 359 2.0 5.0 0.00 0.01 0.01 57 1014.0
20260507132420 62 357 2.0 5.0 0.00 0.01 0.01 57 1014.0
20260507131626 62 357 2.0 4.0 0.00 0.01 0.01 58 1014.0
20260507131420 62 355 2.0 5.0 0.00 0.02 0.01 58 1014.0
20260507130626 62 355 3.0 8.0 0.00 0.01 0.01 59 1014.0
20260507130420 62 327 2.0 5.0 0.00 0.02 0.01 59 1013.9
20260507125919 62 358 2.0 6.0 0.00 0.02 0.01 55 1013.9
20260507125626 62 3 3.0 6.0 0.00 0.03 0.01 55 1013.9
20260507125420 62 34 3.0 7.0 0.00 0.02 0.01 55 1013.8
20260507124920 63 70 3.0 7.0 0.00 0.03 0.01 53 1013.8
20260507124626 63 79 3.0 5.0 0.00 0.03 0.01 49 1013.9
20260507124420 63 79 2.0 5.0 0.00 0.03 0.01 49 1013.8
20260507123920 62 78 2.0 6.0 0.00 0.03 0.01 53 1013.8
20260507123626 62 77 3.0 6.0 0.00 0.03 0.01 53 1013.8
20260507123420 62 66 3.0 6.0 0.00 0.03 0.01 53 1013.8
20260507122626 64 334 2.0 6.0 0.00 0.03 0.01 54 1013.8
20260507122420 64 325 3.0 7.0 0.00 0.03 0.01 54 1013.8
20260507121626 63 276 3.0 7.0 0.00 0.03 0.01 57 1013.8
20260507121419 63 14 3.0 7.0 0.00 0.03 0.01 57 1013.7
20260507120920 62 356 2.0 4.0 0.00 0.04 0.01 57 1013.7
20260507120626 62 357 2.0 4.0 0.00 0.03 0.01 59 1013.9
20260507120419 62 356 2.0 4.0 0.00 0.04 0.01 59 1013.8
20260507115920 62 356 2.0 5.0 0.00 0.04 0.01 58 1013.9
20260507115626 62 356 2.0 5.0 0.00 0.04 0.01 56 1013.9
20260507115420 62 21 3.0 6.0 0.00 0.04 0.01 56 1013.9
20260507114920 63 40 3.0 6.0 0.00 0.04 0.01 55 1013.9
20260507114420 64 27 3.0 7.0 0.00 0.05 0.01 50 1013.9
20260507113920 64 7 3.0 8.0 0.00 0.05 0.01 55 1013.9
20260507113626 64 353 3.0 8.0 0.00 0.04 0.01 55 1013.9
20260507113420 64 11 2.0 8.0 0.00 0.05 0.01 55 1013.9
20260507112920 64 51 2.0 7.0 0.00 0.05 0.01 56 1013.8
20260507112626 63 61 2.0 7.0 0.00 0.04 0.01 55 1014.0
20260507111920 64 346 3.0 6.0 0.00 0.05 0.01 54 1013.9
20260507111419 63 333 3.0 8.0 0.00 0.05 0.01 57 1014.0
20260507110920 63 336 3.0 8.0 0.00 0.05 0.01 59 1013.9
20260507110626 63 313 2.0 5.0 0.00 0.04 0.01 55 1013.9
20260507110420 63 11 3.0 7.0 0.00 0.05 0.01 55 1013.9
20260507105920 63 59 4.0 12.0 0.00 0.05 0.01 59 1014.0
20260507105626 63 61 4.0 12.0 0.00 0.06 0.01 61 1014.0
20260507105420 63 71 4.0 12.0 0.00 0.06 0.01 61 1014.0
20260507104920 63 56 4.0 11.0 0.00 0.06 0.01 60 1014.0
20260507104626 62 69 3.0 8.0 0.00 0.06 0.01 61 1014.0
20260507104420 62 53 4.0 10.0 0.00 0.06 0.01 61 1014.0
20260507103919 62 70 4.0 10.0 0.00 0.06 0.01 56 1014.0
20260507102921 62 4 2.0 8.0 0.00 0.06 0.01 64 1013.9
20260507102626 62 22 2.0 8.0 0.00 0.06 0.01 61 1014.0
20260507102420 62 358 3.0 9.0 0.00 0.06 0.01 61 1013.9
20260507101920 63 1 3.0 9.0 0.00 0.06 0.01 60 1013.8
20260507101420 63 338 3.0 8.0 0.00 0.07 0.01 59 1013.9
20260507100920 63 348 3.0 8.0 0.00 0.07 0.01 58 1013.8
20260507100626 63 327 2.0 6.0 0.00 0.06 0.01 60 1013.8
20260507100421 63 358 3.0 10.0 0.00 0.07 0.01 60 1013.8
20260507095920 62 333 3.0 10.0 0.00 0.08 0.01 59 1013.8
20260507095626 62 322 2.0 7.0 0.00 0.08 0.01 63 1013.8
20260507095421 62 320 3.0 9.0 0.00 0.08 0.01 63 1013.8
20260507094921 62 328 3.0 9.0 0.00 0.08 0.01 66 1013.7
20260507094626 61 294 2.0 6.0 0.00 0.08 0.01 61 1013.8
20260507094420 61 348 3.0 6.0 0.00 0.09 0.01 61 1013.8
20260507093920 61 13 3.0 8.0 0.00 0.09 0.01 64 1013.7
20260507093627 61 330 3.0 8.0 0.00 0.08 0.01 67 1013.7
20260507093420 61 47 4.0 9.0 0.00 0.09 0.01 67 1013.7
20260507092626 61 63 3.0 8.0 0.00 0.08 0.01 65 1013.7
20260507092421 61 58 3.0 9.0 0.00 0.09 0.01 65 1013.7
20260507091626 60 47 3.0 7.0 0.00 0.08 0.01 67 1013.8
20260507091421 60 302 4.0 8.0 0.00 0.10 0.01 67 1013.8
20260507090626 60 313 3.0 7.0 0.00 0.08 0.01 70 1013.7
20260507090420 60 318 3.0 8.0 0.00 0.11 0.01 70 1013.7
20260507085921 60 320 3.0 8.0 0.00 0.11 0.01 69 1013.7
20260507085626 59 328 2.0 4.0 0.01 0.11 0.01 70 1013.6
20260507085420 59 330 3.0 8.0 0.01 0.11 0.01 70 1013.6
20260507084920 59 356 3.0 8.0 0.01 0.11 0.01 71 1013.6
20260507083626 58 17 2.0 4.0 0.01 0.11 0.01 71 1013.5
20260507083420 58 325 2.0 5.0 0.01 0.12 0.01 71 1013.5
20260507082920 58 321 2.0 5.0 0.01 0.12 0.01 71 1013.4
20260507082626 57 323 2.0 5.0 0.01 0.11 0.01 73 1013.6
20260507081920 57 310 3.0 5.0 0.01 0.12 0.01 73 1013.5
20260507080626 56 17 2.0 5.0 0.01 0.11 0.01 74 1013.5
20260507080420 56 343 2.0 5.0 0.01 0.13 0.01 74 1013.4
20260507075920 55 341 2.0 6.0 0.01 0.13 0.01 75 1013.4
20260507075627 54 6 2.0 6.0 0.00 0.13 0.00 76 1013.4
20260507075421 54 25 2.0 6.0 0.00 0.12 0.00 76 1013.5
20260507074920 54 34 2.0 6.0 0.00 0.13 0.00 74 1013.4
20260507074626 54 27 2.0 4.0 0.00 0.13 0.00 76 1013.3
20260507074421 54 20 2.0 5.0 0.00 0.13 0.00 76 1013.4
20260507073920 54 354 3.0 7.0 0.00 0.13 0.00 75 1013.3
20260507073626 54 328 3.0 7.0 0.00 0.13 0.00 74 1013.3
20260507073420 54 17 3.0 7.0 0.00 0.13 0.00 74 1013.3
20260507072921 54 56 2.0 4.0 0.00 0.13 0.00 76 1013.2
20260507072626 53 59 2.0 4.0 0.00 0.13 0.00 79 1013.1
20260507072421 53 61 2.0 5.0 0.00 0.13 0.00 79 1013.1
20260507071920 53 62 2.0 6.0 0.00 0.13 0.00 79 1013.0
20260507071626 52 62 2.0 6.0 0.00 0.13 0.00 80 1013.0
20260507071420 52 63 2.0 6.0 0.00 0.13 0.00 80 1013.0
20260507070626 51 63 2.0 6.0 0.00 0.13 0.00 80 1013.0
20260507070420 51 26 2.0 6.0 0.00 0.13 0.00 80 1013.1
20260507065920 50 15 2.0 4.0 0.00 0.14 0.00 82 1013.0
20260507065626 49 12 2.0 4.0 0.00 0.15 0.00 83 1013.0
20260507065421 49 17 2.0 4.0 0.00 0.14 0.00 83 1012.9
20260507064920 49 18 2.0 4.0 0.00 0.15 0.00 83 1013.0
20260507064626 49 17 1.0 4.0 0.00 0.15 0.00 82 1013.0
20260507063626 48 29 2.0 4.0 0.00 0.15 0.00 83 1013.0
20260507063421 48 34 2.0 5.0 0.00 0.17 0.00 83 1013.0
20260507062920 48 44 2.0 5.0 0.00 0.17 0.00 84 1013.0
20260507062626 47 51 1.0 3.0 0.00 0.15 0.00 83 1012.9
20260507062421 48 45 2.0 6.0 0.00 0.19 0.00 83 1012.9
20260507061920 47 13 2.0 6.0 0.00 0.20 0.00 84 1012.8
20260507061626 47 346 2.0 5.0 0.00 0.15 0.00 84 1012.8
20260507061421 47 339 2.0 5.0 0.00 0.20 0.00 84 1012.8
20260507060920 47 323 2.0 7.0 0.00 0.20 0.00 85 1012.8
20260507060626 47 323 1.0 7.0 0.00 0.15 0.00 85 1012.7
20260507060421 47 323 1.0 7.0 0.00 0.21 0.00 85 1012.7
20260507055920 47 321 1.0 4.0 0.00 0.21 0.00 85 1012.7
20260507055626 47 320 1.0 4.0 0.00 0.22 0.00 86 1012.7
20260507054920 47 315 2.0 5.0 0.00 0.22 0.00 86 1012.7
20260507054626 46 311 2.0 4.0 0.00 0.22 0.00 86 1012.7
20260507054420 46 323 2.0 5.0 0.00 0.23 0.00 86 1012.7
20260507053920 46 9 2.0 5.0 0.00 0.23 0.00 86 1012.6
20260507053626 46 12 2.0 5.0 0.00 0.22 0.00 86 1012.7
20260507053421 46 27 2.0 5.0 0.00 0.23 0.00 86 1012.6
20260507052626 46 31 3.0 5.0 0.00 0.22 0.00 87 1012.5
20260507052420 46 342 2.0 5.0 0.00 0.23 0.00 87 1012.6
20260507051920 46 327 2.0 5.0 0.00 0.23 0.00 87 1012.4
20260507051626 46 326 1.0 4.0 0.00 0.22 0.00 87 1012.5
20260507050920 46 0 0.0 5.0 0.00 0.24 0.00 88 1012.4
20260507050626 46 326 1.0 5.0 0.00 0.22 0.00 88 1012.3
20260507050420 46 323 1.0 5.0 0.00 0.24 0.00 88 1012.2
20260507045921 46 320 1.0 3.0 0.00 0.24 0.00 88 1012.2
20260507044624 46 321 0.0 2.0 0.00 0.24 0.00 88 1011.9
20260507044415 46 320 1.0 2.0 0.00 0.25 0.00 88 1011.9
20260507043916 46 320 1.0 3.0 0.00 0.25 0.00 88 1011.8
20260507043623 46 321 1.0 3.0 0.00 0.24 0.00 88 1011.8
20260507043416 46 321 1.0 3.0 0.00 0.25 0.00 88 1011.8
20260507042416 46 320 1.0 4.0 0.00 0.26 0.00 88 1011.7
20260507041916 46 329 2.0 7.0 0.00 0.26 0.00 87 1011.7
20260507041623 46 321 2.0 7.0 0.00 0.24 0.00 87 1011.8
20260507041415 46 340 2.0 7.0 0.00 0.26 0.00 87 1011.8
20260507040918 46 348 2.0 4.0 0.00 0.27 0.00 88 1011.7
20260507040624 46 349 1.0 4.0 0.00 0.24 0.00 88 1011.7
20260507035916 46 349 2.0 6.0 0.00 0.28 0.00 88 1011.6
20260507035624 46 350 2.0 6.0 0.00 0.28 0.00 88 1011.6
20260507034916 46 344 1.0 4.0 0.00 0.28 0.00 88 1011.6
20260507034416 46 345 2.0 4.0 0.00 0.28 0.00 88 1011.6
20260507033915 46 345 2.0 4.0 0.00 0.29 0.00 88 1011.6
20260507033415 47 345 1.0 5.0 0.00 0.30 0.00 88 1011.5
20260507032916 47 345 1.0 5.0 0.00 0.30 0.00 88 1011.5
20260507032624 47 346 0.0 0.0 0.00 0.28 0.00 88 1011.5
20260507032415 47 0 0.0 4.0 0.00 0.31 0.00 88 1011.4
20260507031916 47 346 1.0 4.0 0.00 0.31 0.00 88 1011.5
20260507031624 47 346 1.0 3.0 0.00 0.28 0.00 88 1011.5
20260507031415 47 346 1.0 4.0 0.00 0.31 0.00 88 1011.4
20260507030916 47 346 1.0 4.0 0.00 0.32 0.00 88 1011.3
20260507030416 47 346 1.0 4.0 0.00 0.32 0.00 88 1011.4
20260507025916 47 346 1.0 4.0 0.00 0.33 0.00 89 1011.3
20260507025624 47 346 1.0 4.0 0.00 0.34 0.00 89 1011.2
20260507025416 47 346 2.0 4.0 0.00 0.33 0.00 89 1011.2
20260507024915 47 345 1.0 5.0 0.00 0.34 0.00 89 1011.1
20260507024415 47 343 1.0 5.0 0.00 0.35 0.00 89 1011.1
20260507023624 47 342 0.0 0.0 0.00 0.34 0.00 89 1011.1
20260507022915 47 0 0.0 0.0 0.00 0.36 0.00 89 1011.1
20260507022416 47 0 0.0 0.0 0.00 0.36 0.00 89 1011.1
20260507021915 47 0 0.0 2.0 0.00 0.37 0.00 90 1011.0
20260507021624 47 342 0.0 2.0 0.00 0.34 0.00 90 1010.9
20260507021416 47 0 0.0 2.0 0.00 0.38 0.00 90 1011.0
20260507020916 47 342 1.0 3.0 0.00 0.39 0.00 90 1010.9
20260507020624 47 342 1.0 3.0 0.00 0.34 0.00 90 1011.0
20260507020415 47 0 0.0 3.0 0.00 0.39 0.00 90 1011.0
20260507015916 47 0 0.0 3.0 0.00 0.39 0.00 90 1011.1
20260507015418 47 341 1.0 3.0 0.00 0.40 0.00 90 1010.9
20260507014916 47 341 1.0 3.0 0.00 0.41 0.00 90 1011.0
20260507014624 47 342 1.0 3.0 0.00 0.40 0.00 90 1011.0
20260507014416 47 342 1.0 3.0 0.00 0.42 0.00 90 1011.0
20260507013916 47 341 1.0 3.0 0.00 0.43 0.00 90 1010.9
20260507013624 47 342 1.0 2.0 0.00 0.40 0.00 90 1010.9
20260507013415 47 341 1.0 3.0 0.00 0.43 0.00 90 1010.9
20260507012916 47 341 1.0 4.0 0.00 0.44 0.00 90 1010.9
20260507012624 47 342 1.0 4.0 0.00 0.40 0.00 90 1010.9
20260507012415 47 0 0.0 4.0 0.00 0.45 0.00 90 1010.7
20260507011916 47 0 0.0 0.0 0.00 0.45 0.00 90 1010.7
20260507011624 47 342 0.0 0.0 0.00 0.40 0.00 90 1010.7
20260507011416 47 0 0.0 0.0 0.00 0.46 0.00 90 1010.7
20260507010916 47 0 0.0 0.0 0.00 0.46 0.00 89 1010.7
20260507010624 47 342 0.0 0.0 0.00 0.40 0.00 89 1010.7
20260507005916 47 0 0.0 0.0 0.00 0.46 0.00 89 1010.7
20260507005624 47 342 0.0 0.0 0.00 0.47 0.00 89 1010.8
20260507005416 47 0 0.0 0.0 0.00 0.47 0.00 89 1010.8
20260507004916 47 0 0.0 0.0 0.00 0.48 0.00 89 1010.7
20260507004624 47 342 0.0 0.0 0.00 0.47 0.00 89 1010.7
20260507004416 47 0 0.0 0.0 0.00 0.48 0.00 89 1010.7
20260507003916 47 0 0.0 0.0 0.00 0.49 0.00 89 1010.6
20260507003624 47 342 0.0 0.0 0.00 0.47 0.00 89 1010.6
20260507003416 47 342 1.0 3.0 0.00 0.49 0.00 89 1010.5
20260507002624 47 342 1.0 3.0 0.00 0.47 0.00 89 1010.5
20260507001917 47 341 1.0 3.0 0.00 0.50 0.00 90 1010.4
20260507001624 47 342 1.0 3.0 0.00 0.47 0.00 90 1010.4
20260507001416 47 341 2.0 4.0 0.00 0.50 0.00 90 1010.4
20260507000916 47 341 1.0 4.0 0.00 0.50 0.00 90 1010.4
20260507000625 47 341 1.0 3.0 0.00 0.47 0.00 90 1010.4
20260506235916 47 342 1.0 3.0 0.00 0.50 0.00 90 1010.3
20260506235624 47 342 1.0 3.0 0.00 0.51 0.00 90 1010.4
20260506234916 47 342 1.0 3.0 0.00 0.51 0.00 90 1010.4
20260506234624 47 342 0.0 2.0 0.00 0.51 0.00 90 1010.4
20260506233916 47 341 1.0 4.0 0.00 0.51 0.00 90 1010.4
20260506232916 47 341 1.0 3.0 0.00 0.52 0.00 90 1010.3
20260506232624 47 342 1.0 2.0 0.00 0.51 0.00 90 1010.4
20260506232416 47 341 1.0 3.0 0.00 0.52 0.00 90 1010.3
20260506231916 47 341 2.0 3.0 0.00 0.52 0.00 90 1010.3
20260506231624 47 342 1.0 3.0 0.00 0.51 0.00 90 1010.3
20260506231416 47 341 2.0 4.0 0.00 0.52 0.00 90 1010.2
20260506230916 47 341 1.0 4.0 0.00 0.52 0.00 90 1010.3
20260506230624 47 342 1.0 4.0 0.00 0.51 0.00 90 1010.3
20260506230417 47 341 1.0 4.0 0.00 0.52 0.00 90 1010.2
20260506225916 46 340 1.0 4.0 0.00 0.52 0.00 90 1010.2
20260506225624 46 341 1.0 4.0 0.00 0.52 0.00 91 1010.2